This demonstration page uses our WeatherBlox Daily Observations layout. Learn more.

38.89511, -77.03637

Hourly Observations for February 19, 2015

Temp ( °F °C ) Dew Point ( °F °C ) Humidity (%) Winds ( mph kmh ) Pressure ( in mb ) Visibility ( mi km ) Precip ( " mm )
12:52 am 00:52 Mostly Clear 19 -7.2 -4 -20 36 36 WNW 13 20 29.97 1015 10 16.0934 0 0
1:52 am 01:52 Mostly Clear 18 -7.8 -5 -20.6 35 35 NW 13 20 29.98 1015 10 16.0934 0 0
2:52 am 02:52 Clear 17 -8.3 -5 -20.6 37 37 W 10 17 29.97 1015 10 16.0934 0 0
3:52 am 03:52 Clear 16 -8.9 -5 -20.6 38 38 WNW 16 26 29.98 1015 10 16.0934 0 0
4:52 am 04:52 Clear 15 -9.4 -5 -20.6 40 40 WNW 10 17 29.99 1016 10 16.0934 0 0
5:52 am 05:52 Clear 15 -9.4 -5 -20.6 40 40 WNW 13 20 30 1016 10 16.0934 0 0
6:52 am 06:52 Clear 14 -10 -6 -21.1 40 40 W 14 22 30.02 1017 10 16.0934 0 0
7:52 am 07:52 Sunny 15 -9.4 -6 -21.1 38 38 WNW 15 24 30.05 1018 10 16.0934 0 0
8:52 am 08:52 Sunny 16 -8.9 -6 -21.1 37 37 WNW 17 28 30.07 1018 10 16.0934 0 0
9:52 am 09:52 Mostly Sunny 17 -8.3 -6 -21.1 35 35 W 20 31 30.07 1018 10 16.0934 0 0
10:52 am 10:52 Partly Cloudy 18 -7.8 -6 -21.1 34 34 WNW 17 28 30.08 1019 10 16.0934 0 0
11:52 am 11:52 Partly Cloudy 18 -7.8 -8 -22.2 31 31 WNW 24 39 30.08 1019 10 16.0934 0 0
12:52 pm 12:52 Partly Cloudy 20 -6.7 -8 -22.2 28 28 W 17 28 30.07 1018 10 16.0934 0 0
1:52 pm 13:52 Mostly Cloudy 19 -7.2 -9 -22.8 28 28 W 21 33 30.07 1018 10 16.0934 0 0
2:52 pm 14:52 Mostly Cloudy 19 -7.2 -9 -22.8 28 28 WNW 23 37 30.07 1018 10 16.0934 0 0
3:52 pm 15:52 Mostly Cloudy 17 -8.3 -8 -22.2 32 32 WNW 23 37 30.08 1019 10 16.0934 0 0
4:52 pm 16:52 Mostly Cloudy 17 -8.3 -9 -22.8 30 30 WNW 18 30 30.1 1019 10 16.0934 0 0
5:52 pm 17:52 Mostly Cloudy 16 -8.9 -9 -22.8 32 32 W 22 35 30.14 1021 10 16.0934 0 0
6:52 pm 18:52 Partly Cloudy 15 -9.4 -7 -21.7 36 36 WNW 15 24 30.16 1022 10 16.0934 0 0
7:52 pm 19:52 Mostly Clear 14 -10 -8 -22.2 36 36 WNW 16 26 30.18 1022 10 16.0934 0 0
8:52 pm 20:52 Partly Cloudy 13 -10.6 -6 -21.1 42 42 W 8 13 30.19 1023 10 16.0934 0 0
9:52 pm 21:52 Mostly Cloudy 13 -10.6 -5 -20.6 44 44 WNW 15 24 30.21 1023 10 16.0934 0 0
10:06 pm 22:06 Cloudy with Light Snow 12 -11 -4 -20 48 48 NW 12 19 30.21 1023 9 14.48406 0 0.0254
10:10 pm 22:10 Cloudy with Light Snow 12 -11 -2 -19 52 52 NW 12 19 30.21 1023 4 6.43736 0 0
10:16 pm 22:16 Mostly Cloudy with Scattered Snow Showers 12 -11 0 -18 57 57 NW 10 17 30.21 1023 8 12.87472 0 0
10:26 pm 22:26 Mostly Cloudy with Scattered Snow Showers 12 -11 -2 -19 52 52 NW 13 20 30.24 1024 8 12.87472 0 0.0254
10:29 pm 22:29 Mostly Cloudy with Scattered Snow Showers 12 -11 0 -18 57 57 NNW 16 26 30.24 1024 1.5 2.41401 0 0.0254
10:39 pm 22:39 Mostly Cloudy with Scattered Snow Showers 12 -11 1 -17 62 62 WNW 16 26 30.24 1024 3 4.82802 0 0.0254
10:43 pm 22:43 Mostly Cloudy with Scattered Snow Showers 12 -11 1 -17 62 62 WNW 9 15 30.24 1024 9 14.48406 0 0.0254
10:52 pm 22:52 Cloudy 12 -11.1 -1 -18.3 56 56 NW 13 20 30.23 1024 10 16.0934 0 0.0254
11:52 pm 23:52 Partly Cloudy 11 -11.7 -11 -23.9 36 36 WNW 21 33 30.24 1024 10 16.0934 0 0

Powered by AerisWeather